• In Lithuania
  • List of Countries
  • For 7 days
  • Water Temperature
  • Satellite Maps
  • Weather Map
  • Weather Widgets
  • user-avatar
    Login

    Hourly Weather Eisenstadt

    Today, 23 August, Wednesday

    Time Temperature Precipitation Wind Pressure Humidity
    00:00 +14°C° 0 mm 1 mps 724 mmHg 65%
    01:00 +14°C° 0 mm 2 mps 724 mmHg 65%
    02:00 +14°C° 0 mm 2 mps 724 mmHg 68%
    03:00 +13°C° 0 mm 2 mps 724 mmHg 71%
    04:00 +12°C° 0 mm 2 mps 724 mmHg 75%
    05:00 +13°C° 0 mm 2 mps 724 mmHg 72%
    06:00 +14°C° 0 mm 2 mps 725 mmHg 69%
    07:00 +16°C° 0 mm 2 mps 725 mmHg 63%
    08:00 +17°C° 0 mm 2 mps 725 mmHg 57%
    09:00 +19°C° 0 mm 2 mps 725 mmHg 52%
    10:00 +21°C° 0 mm 2 mps 725 mmHg 46%
    11:00 +21°C° 0 mm 2 mps 725 mmHg 44%
    12:00 +23°C° 0 mm 2 mps 725 mmHg 42%
    13:00 +24°C° 0 mm 2 mps 725 mmHg 40%
    14:00 +24°C° 0 mm 2 mps 725 mmHg 40%
    15:00 +24°C° 0 mm 1 mps 725 mmHg 40%
    16:00 +24°C° 0 mm 1 mps 724 mmHg 41%
    17:00 +22°C° 0 mm 1 mps 724 mmHg 46%
    18:00 +21°C° 0 mm 1 mps 724 mmHg 51%
    19:00 +19°C° 0 mm 1 mps 724 mmHg 56%
    20:00 +18°C° 0 mm 1 mps 724 mmHg 58%
    21:00 +16°C° 0 mm 1 mps 724 mmHg 60%
    22:00 +15°C° 0 mm 1 mps 724 mmHg 61%
    23:00 +15°C° 0 mm 1 mps 724 mmHg 62%

    Tomorrow, 24 August, Thursday

    Time Temperature Precipitation Wind Pressure Humidity
    00:00 +14°C° 0 mm 1 mps 724 mmHg 63%
    01:00 +14°C° 0 mm 1 mps 724 mmHg 64%
    02:00 +14°C° 0 mm 1 mps 724 mmHg 65%
    03:00 +13°C° 0 mm 1 mps 724 mmHg 66%
    04:00 +13°C° 0 mm 1 mps 724 mmHg 67%
    05:00 +13°C° 0 mm 0 mps 724 mmHg 64%
    06:00 +15°C° 0 mm 0 mps 725 mmHg 61%
    07:00 +16°C° 0 mm 0 mps 725 mmHg 57%
    08:00 +21°C° 0 mm 1 mps 725 mmHg 52%
    09:00 +23°C° 0 mm 1 mps 725 mmHg 46%
    10:00 +26°C° 0 mm 1 mps 726 mmHg 41%
    11:00 +27°C° 0 mm 1 mps 725 mmHg 38%
    12:00 +28°C° 0 mm 2 mps 725 mmHg 36%
    13:00 +30°C° 0 mm 2 mps 725 mmHg 34%
    14:00 +30°C° 0 mm 2 mps 725 mmHg 35%
    15:00 +30°C° 0 mm 2 mps 725 mmHg 36%
    16:00 +30°C° 0 mm 2 mps 724 mmHg 36%
    17:00 +28°C° 0 mm 2 mps 724 mmHg 43%
    18:00 +26°C° 0 mm 2 mps 724 mmHg 50%
    19:00 +24°C° 0 mm 2 mps 724 mmHg 57%
    20:00 +23°C° 0 mm 2 mps 724 mmHg 60%
    21:00 +21°C° 0 mm 2 mps 724 mmHg 64%
    22:00 +20°C° 0 mm 2 mps 725 mmHg 67%
    23:00 +20°C° 0 mm 1 mps 725 mmHg 68%

    Day after tomorrow, 25 August, Friday

    Time Temperature Precipitation Wind Pressure Humidity
    00:00 +20°C° 0 mm 1 mps 724 mmHg 70%
    01:00 +20°C° 0 mm 1 mps 724 mmHg 71%
    02:00 +19°C° 0 mm 1 mps 724 mmHg 72%
    03:00 +19°C° 0 mm 1 mps 724 mmHg 73%
    04:00 +19°C° 0 mm 1 mps 724 mmHg 74%
    05:00 +20°C° 0 mm 1 mps 725 mmHg 72%
    06:00 +21°C° 0 mm 1 mps 725 mmHg 69%
    07:00 +20°C° 0 mm 0 mps 725 mmHg 67%
    08:00 +24°C° 0 mm 1 mps 725 mmHg 60%
    09:00 +27°C° 0 mm 1 mps 726 mmHg 53%
    10:00 +29°C° 0 mm 1 mps 726 mmHg 46%
    11:00 +30°C° 0 mm 1 mps 726 mmHg 42%
    12:00 +31°C° 0 mm 1 mps 725 mmHg 39%
    13:00 +32°C° 0 mm 1 mps 725 mmHg 35%
    14:00 +32°C° 0 mm 1 mps 725 mmHg 35%
    15:00 +32°C° 0 mm 1 mps 725 mmHg 34%
    16:00 +32°C° 0 mm 1 mps 724 mmHg 34%
    17:00 +30°C° 0 mm 1 mps 724 mmHg 40%
    18:00 +28°C° 0 mm 1 mps 724 mmHg 45%
    19:00 +25°C° 0 mm 1 mps 724 mmHg 51%
    20:00 +25°C° 0 mm 1 mps 724 mmHg 53%
    21:00 +24°C° 0 mm 1 mps 724 mmHg 56%
    22:00 +23°C° 0 mm 1 mps 724 mmHg 58%
    23:00 +22°C° 0.1 mm 1 mps 724 mmHg 60%

    26 August, Saturday

    Time Temperature Precipitation Wind Pressure Humidity
    00:00 +22°C° 0.1 mm 1 mps 724 mmHg 62%
    01:00 +21°C° 0.1 mm 1 mps 724 mmHg 63%
    02:00 +21°C° 0 mm 1 mps 724 mmHg 64%
    03:00 +21°C° 0 mm 1 mps 724 mmHg 66%
    04:00 +20°C° 0 mm 1 mps 724 mmHg 67%
    05:00 +21°C° 0 mm 1 mps 724 mmHg 65%
    06:00 +22°C° 0 mm 1 mps 724 mmHg 63%
    07:00 +23°C° 0 mm 1 mps 724 mmHg 61%
    08:00 +26°C° 0 mm 1 mps 725 mmHg 54%
    09:00 +28°C° 0 mm 1 mps 725 mmHg 47%
    10:00 +31°C° 0 mm 1 mps 725 mmHg 40%
    11:00 +32°C° 0 mm 1 mps 725 mmHg 36%
    12:00 +33°C° 0 mm 1 mps 725 mmHg 33%
    13:00 +35°C° 0 mm 2 mps 724 mmHg 29%
    14:00 +35°C° 0 mm 2 mps 724 mmHg 29%
    15:00 +35°C° 0 mm 2 mps 724 mmHg 29%
    16:00 +35°C° 0 mm 2 mps 724 mmHg 29%
    17:00 +31°C° 0 mm 1 mps 723 mmHg 35%
    18:00 +29°C° 0 mm 1 mps 723 mmHg 40%
    19:00 +26°C° 0 mm 1 mps 723 mmHg 46%
    20:00 +26°C° 0.2 mm 1 mps 723 mmHg 49%
    21:00 +25°C° 0.2 mm 1 mps 723 mmHg 52%
    22:00 +24°C° 0.2 mm 1 mps 723 mmHg 55%
    23:00 +23°C° 0 mm 1 mps 723 mmHg 57%

    27 August, Sunday

    Time Temperature Precipitation Wind Pressure Humidity
    00:00 +23°C° 0 mm 1 mps 723 mmHg 58%
    01:00 +23°C° 0 mm 1 mps 723 mmHg 59%
    02:00 +22°C° 0 mm 1 mps 723 mmHg 60%
    03:00 +22°C° 0 mm 1 mps 723 mmHg 61%
    04:00 +21°C° 0 mm 1 mps 722 mmHg 62%
    05:00 +22°C° 0 mm 1 mps 723 mmHg 61%
    06:00 +23°C° 0 mm 1 mps 723 mmHg 60%
    07:00 +24°C° 0 mm 1 mps 723 mmHg 58%
    08:00 +27°C° 0 mm 1 mps 723 mmHg 52%
    09:00 +29°C° 0 mm 1 mps 724 mmHg 45%
    10:00 +32°C° 0 mm 1 mps 724 mmHg 38%
    11:00 +33°C° 0 mm 1 mps 724 mmHg 35%
    12:00 +34°C° 0 mm 1 mps 723 mmHg 31%
    13:00 +35°C° 0 mm 1 mps 723 mmHg 28%
    14:00 +35°C° 0 mm 1 mps 723 mmHg 28%
    15:00 +35°C° 0 mm 1 mps 723 mmHg 28%
    16:00 +36°C° 0 mm 2 mps 722 mmHg 27%
    17:00 +32°C° 0.1 mm 1 mps 722 mmHg 33%
    18:00 +30°C° 0.1 mm 1 mps 722 mmHg 39%
    19:00 +27°C° 0.1 mm 1 mps 722 mmHg 45%
    20:00 +26°C° 0 mm 1 mps 722 mmHg 48%
    21:00 +26°C° 0 mm 1 mps 722 mmHg 51%
    22:00 +25°C° 0 mm 1 mps 722 mmHg 53%
    23:00 +24°C° 0 mm 1 mps 722 mmHg 55%

    28 August, Monday

    Time Temperature Precipitation Wind Pressure Humidity
    00:00 +24°C° 0 mm 1 mps 722 mmHg 57%
    01:00 +23°C° 0 mm 1 mps 721 mmHg 59%
    02:00 +23°C° 0 mm 2 mps 722 mmHg 61%
    03:00 +23°C° 0 mm 2 mps 722 mmHg 64%
    04:00 +21°C° 0 mm 2 mps 722 mmHg 66%
    05:00 +23°C° 0 mm 2 mps 722 mmHg 66%
    06:00 +24°C° 0 mm 3 mps 723 mmHg 66%
    07:00 +24°C° 0 mm 3 mps 723 mmHg 66%
    08:00 +26°C° 0 mm 3 mps 723 mmHg 59%
    09:00 +28°C° 0 mm 4 mps 724 mmHg 52%
    10:00 +30°C° 0 mm 4 mps 724 mmHg 44%
    11:00 +32°C° 0 mm 4 mps 724 mmHg 41%
    12:00 +33°C° 0 mm 4 mps 724 mmHg 38%
    13:00 +34°C° 0 mm 4 mps 724 mmHg 35%
    14:00 +33°C° 0 mm 4 mps 724 mmHg 36%
    15:00 +33°C° 0 mm 4 mps 724 mmHg 37%
    16:00 +32°C° 0 mm 4 mps 724 mmHg 38%
    17:00 +29°C° 0.1 mm 4 mps 724 mmHg 45%
    18:00 +27°C° 0.1 mm 3 mps 724 mmHg 52%
    19:00 +25°C° 0.1 mm 2 mps 724 mmHg 59%
    20:00 +24°C° 0 mm 2 mps 724 mmHg 63%
    21:00 +23°C° 0 mm 2 mps 724 mmHg 66%
    22:00 +21°C° 0 mm 2 mps 724 mmHg 69%
    23:00 +21°C° 0 mm 2 mps 724 mmHg 71%
    Show more